This is the latest recevied weather packets stored in our database for station/object KR4ELZ. If no packets are shown the sender has not sent any weather packets the latest 10 day(s).
| Time | Temp. | Humidity | Pressure | Rain* | Wind** | Luminosity | Snow |
|---|---|---|---|---|---|---|---|
| 1777676010 | 17.78° C | 51% | 1013.9 hPa | 0 mm | - | 126 W/m² | - |
| 1777675706 | 17.78° C | 55% | 1013.8 hPa | 0 mm | - | 69 W/m² | - |
| 1777675404 | 17.22° C | 55% | 1013.8 hPa | 0 mm | - | 91 W/m² | - |
| 1777675100 | 17.22° C | 52% | 1013.8 hPa | 0 mm | - | 60 W/m² | - |
| 1777674796 | 17.78° C | 53% | 1013.8 hPa | 0 mm | - | 61 W/m² | - |
| 1777674492 | 17.78° C | 53% | 1013.9 hPa | 0 mm | - | 68 W/m² | - |
| 1777674191 | 17.78° C | 52% | 1013.7 hPa | 0 mm | - | 99 W/m² | - |
| 1777673887 | 17.78° C | 53% | 1013.8 hPa | 0 mm | - | 111 W/m² | - |
| 1777673583 | 18.33° C | 51% | 1013.9 hPa | 0 mm | - | 86 W/m² | - |
| 1777673281 | 18.33° C | 51% | 1014 hPa | 0 mm | - | 102 W/m² | - |
| 1777672978 | 18.33° C | 51% | 1013.9 hPa | 0 mm | - | 145 W/m² | - |
| 1777672675 | 18.33° C | 50% | 1013.8 hPa | 0 mm | - | 123 W/m² | - |
| 1777672370 | 18.33° C | 53% | 1013.7 hPa | 0 mm | - | 152 W/m² | - |
| 1777672066 | 18.33° C | 54% | 1013.4 hPa | 0 mm | - | 172 W/m² | - |
| 1777671762 | 18.33° C | 53% | 1013.4 hPa | 0 mm | - | 172 W/m² | - |
| 1777671458 | 18.89° C | 53% | 1013.3 hPa | 0 mm | - | 151 W/m² | - |
| 1777671155 | 18.89° C | 52% | 1013.3 hPa | 0 mm | - | 168 W/m² | - |
| 1777670851 | 18.89° C | 51% | 1013.5 hPa | 0 mm | - | 133 W/m² | - |
| 1777670547 | 19.44° C | 53% | 1013.3 hPa | 0 mm | - | 194 W/m² | - |
| 1777670245 | 20° C | 51% | 1013.3 hPa | 0 mm | - | 276 W/m² | - |
| 1777669942 | 20° C | 49% | 1013.5 hPa | 0 mm | - | 317 W/m² | - |
| 1777669639 | 19.44° C | 52% | 1013.6 hPa | 0 mm | - | 320 W/m² | - |
| 1777669335 | 18.89° C | 51% | 1013.6 hPa | 0 mm | - | 319 W/m² | - |
| 1777669032 | 18.89° C | 54% | 1013.8 hPa | 0 mm | - | 170 W/m² | - |
| 1777668729 | 18.89° C | 54% | 1013.9 hPa | 0 mm | - | 161 W/m² | - |
* Rain latest hour (hover to see other rain measurements)
** Current wind speed in m/s (hover to see current wind gust speed)